Simultaneous Nadir Overpasses (SNOs) Predictions

Prediction of SNOs near US between AQUA and NPP Satellite Orbit:

Table of predicted SNOs near US for the next 10.0 days since TLE Epoch: 3/9/2013
Index Date (AQUA) Time (AQUA) AQUA Lat,Lon Date (NPP) Time (NPP) NPP Lat,Lon Distance(km) Time Diff (sec)
1 03/13/2013 07:19:12 49.82, -76.04 03/13/2013 07:19:09 50.21, -78.31 168.00 3
2 03/13/2013 08:58:03 49.94,-100.71 03/13/2013 09:00:34 50.50,-103.56 211.71 151
3 03/15/2013 18:17:20 49.96, -80.23 03/15/2013 18:09:26 49.67, -81.85 120.51 474
4 03/15/2013 19:56:13 49.96,-104.95 03/15/2013 19:50:54 49.56,-107.18 165.80 319
5 03/15/2013 21:31:21 36.55,-125.00 03/15/2013 21:28:31 36.06,-127.63 242.17 170




NCC Satellite Simultaneous Nadir Overpasses (SNOs) Prediction Service
